Home   Weather   Charleston   Past weeks

Flag for USA Past Weather in Charleston, West Virginia, USA — Yesterday and Last 2 Weeks

Now
76 °F

Scattered clouds.


Feels Like: 77 °F
Forecast: 46 / 82 °F
Wind: 5 mph from West

Location: Yeager Airport

Current Time: Sep 28, 2016 at 7:55:37 PM

Latest Report: Sep 28, 2016 at 6:54 PM


Visibility: 10 mi

Pressure: 29.83 "Hg

Humidity: 32%

Dew Point: 44 °F

Location of CharlestonLocation

Past Weather in Charleston — Graph

°F

Charleston Temperature Yesterday

Maximum temperature yesterday: 76 °F (at 3:54 PM)
Minimum temperature yesterday: 52 °F (at 11:54 PM)
Average temperature yesterday: 62 °F

High & Low Weather Summary for the Past Weeks

 TemperatureHumidityPressure
High91 °F (Sep 13, 5:54 PM)97% (Sep 14, 7:54 AM)30.20 "Hg (Sep 14, 7:54 AM)
Low45 °F (Sep 28, 6:54 AM)24% (Sep 14, 3:54 PM)29.83 "Hg (Sep 28, 4:54 PM)
Average72 °F71%30.06 "Hg
* Reported Sep 13 5:54 PM — Sep 28 5:54 PM, Charleston, Weather by CustomWeather, © 2016

Note: Actual official high and low records may vary slightly from our data, if they occured in-between our weather recording intervals... More about our weather records

Advertising

Charleston Weather History for the Previous 24 Hours

Scroll right to see more
 ConditionsComfort  
Time TempWeatherWind HumidityBarometerVisibility
5:54 PM
Wed, Sep 28
80 °FPassing clouds.8 mph26%29.83 "Hg10 mi
4:54 PM80 °FPassing clouds.8 mph26%29.83 "Hg10 mi
3:54 PM80 °FPassing clouds.6 mph24%29.84 "Hg10 mi
2:54 PM80 °FPassing clouds.6 mph24%29.85 "Hg10 mi
1:54 PM79 °FPassing clouds.13 mph24%29.87 "Hg10 mi
12:54 PM77 °FPassing clouds.10 mph28%29.89 "Hg10 mi
11:54 AM74 °FSunny.6 mph36%29.90 "Hg10 mi
10:54 AM66 °FSunny.No wind56%29.92 "Hg10 mi
9:54 AM57 °FSunny.No wind72%29.93 "Hg10 mi
8:54 AM49 °FPassing clouds.No wind93%29.92 "Hg10 mi
7:54 AM46 °FPassing clouds.No wind96%29.93 "Hg10 mi
6:54 AM45 °FPassing clouds.No wind97%29.92 "Hg10 mi
5:54 AM46 °FFog.No wind96%29.92 "Hg6 mi
4:54 AM46 °FFog.No wind96%29.91 "Hg6 mi
3:54 AM47 °FFog.No wind97%29.91 "Hg6 mi
2:54 AM49 °FPassing clouds.No wind93%29.93 "Hg9 mi
2:03 AM49 °FClear.No wind93%29.94 "Hg10 mi
12:54 AM50 °FClear.No wind89%29.92 "Hg10 mi
11:54 PM
Tue, Sep 27
52 °FClear.No wind86%29.93 "Hg10 mi
10:54 PM55 °FClear.No wind74%29.92 "Hg10 mi
9:54 PM57 °FClear.No wind69%29.92 "Hg10 mi
8:54 PM61 °FClear.No wind56%29.90 "Hg10 mi
7:54 PM66 °FClear.No wind40%29.89 "Hg10 mi
Weather by CustomWeather, © 2016

See weather overviewHow to use our weather pages